Weather History for KSLB - July, 2013

Change the Weather History Date:

Friday, July 19, 2013

  Actual Average Record
Temperature  
Mean Temperature 79 °F -  
Max Temperature 89 °F 80 °F 100 °F (2006)
Min Temperature 69 °F 64 °F 55 °F (2000)
Cooling Degree Days 14    
Growing Degree Days 29 (Base 50)    
Moisture  
Dew Point 63 °F    
Average Humidity 57    
Maximum Humidity 73    
Minimum Humidity 31    
Precipitation  
Precipitation 0.00 in - - ()
Sea Level Pressure  
Sea Level Pressure 29.91 in    
Wind  
Wind Speed 11 mph (WNW)    
Max Wind Speed 17 mph    
Max Gust Speed 24 mph    
Visibility 10 miles    
Events      
Averages and records for this station are not official NWS values.
T = Trace of Precipitation, MM = Missing Value Source: NWS Daily Summary

Daily Weather History Graph

Daily Weather History Graph

Search for Another Location

Airport or City:

Trip Planner

Search our weather history database for the weather conditions in past years. The results will help you decide how hot, cold, wet, or windy it might be!

Date:

Astronomy

Jul. 19, 2013 Rise Set
Actual Time 6:00 AM CDT 8:53 PM CDT
Civil Twilight 5:27 AM CDT 9:26 PM CDT
Nautical Twilight 4:44 AM CDT 10:08 PM CDT
Astronomical Twilight 3:55 AM CDT 10:57 PM CDT
Moon 5:56 PM CDT (7/19) 2:42 AM CDT (7/19)
Length of Visible Light 15h 59m
Length of Day
14h 53m
Waxing Gibbous, 87% of the Moon is Illuminated
Jul 19
Waxing Gibbous
Jul 22
Full
Jul 29
Last Quarter
Aug 6
New
Aug 14
First Quarter

Hourly Weather History & Observations

Time (CDT) Temp. Heat Index Dew Point Humidity Pressure Visibility Wind Dir Wind Speed Gust Speed Precip Events Conditions
12:15 AM 78.8 °F - 66.2 °F 65% 29.91 in 10.0 mi SSW 12.7 mph - N/A   Clear
12:35 AM 78.8 °F - 66.2 °F 65% 29.91 in 10.0 mi SSW 12.7 mph 18.4 mph N/A   Clear
12:55 AM 80.6 °F 82.7 °F 66.2 °F 61% 29.91 in 10.0 mi SSW 12.7 mph 20.7 mph N/A   Partly Cloudy
1:15 AM 78.8 °F - 66.2 °F 65% 29.91 in 10.0 mi SW 13.8 mph 19.6 mph N/A   Partly Cloudy
1:35 AM 78.8 °F - 66.2 °F 65% 29.90 in 10.0 mi SW 12.7 mph - N/A   Clear
1:55 AM 78.8 °F - 66.2 °F 65% 29.90 in 10.0 mi SW 12.7 mph - N/A   Clear
2:15 AM 77.0 °F - 66.2 °F 69% 29.89 in 10.0 mi SW 11.5 mph 18.4 mph N/A   Clear
2:35 AM 77.0 °F - 66.2 °F 69% 29.89 in 10.0 mi SW 12.7 mph - N/A   Clear
2:55 AM 77.0 °F - 66.2 °F 69% 29.88 in 10.0 mi SW 11.5 mph 18.4 mph N/A   Clear
3:15 AM 78.8 °F - 66.2 °F 65% 29.88 in 10.0 mi SW 17.3 mph 24.2 mph N/A   Clear
3:35 AM 78.8 °F - 64.4 °F 61% 29.87 in 10.0 mi SW 15.0 mph 23.0 mph N/A   Clear
3:55 AM 78.8 °F - 64.4 °F 61% 29.86 in 10.0 mi SW 17.3 mph - N/A   Clear
4:15 AM 78.8 °F - 64.4 °F 61% 29.86 in 10.0 mi SW 13.8 mph 20.7 mph N/A   Clear
4:35 AM 77.0 °F - 64.4 °F 65% 29.86 in 10.0 mi SW 13.8 mph 20.7 mph N/A   Clear
4:55 AM 77.0 °F - 64.4 °F 65% 29.86 in 10.0 mi WSW 12.7 mph 19.6 mph N/A   Clear
5:15 AM 77.0 °F - 64.4 °F 65% 29.86 in 10.0 mi WSW 15.0 mph - N/A   Partly Cloudy
5:35 AM 77.0 °F - 64.4 °F 65% 29.87 in 10.0 mi WSW 13.8 mph - N/A   Mostly Cloudy
5:55 AM 77.0 °F - 64.4 °F 65% 29.88 in 10.0 mi WSW 11.5 mph - N/A   Mostly Cloudy
6:15 AM 77.0 °F - 64.4 °F 65% 29.88 in 10.0 mi West 9.2 mph 16.1 mph N/A   Partly Cloudy
6:35 AM 75.2 °F - 66.2 °F 73% 29.88 in 10.0 mi WSW 8.1 mph - N/A   Clear
6:55 AM 75.2 °F - 66.2 °F 73% 29.88 in 10.0 mi WSW 8.1 mph - N/A   Clear
7:15 AM 77.0 °F - 66.2 °F 69% 29.89 in 10.0 mi WSW 10.4 mph 16.1 mph N/A   Clear
7:35 AM 77.0 °F - 66.2 °F 69% 29.89 in 10.0 mi WSW 9.2 mph - N/A   Clear
7:55 AM 77.0 °F - 66.2 °F 69% 29.90 in 10.0 mi WSW 9.2 mph - N/A   Clear
8:15 AM 77.0 °F - 66.2 °F 69% 29.90 in 10.0 mi West 9.2 mph - N/A   Clear
8:35 AM 77.0 °F - 66.2 °F 69% 29.91 in 10.0 mi West 8.1 mph - N/A   Clear
8:55 AM 78.8 °F - 68.0 °F 69% 29.92 in 10.0 mi West 9.2 mph - N/A   Clear
9:15 AM 80.6 °F 83.2 °F 68.0 °F 65% 29.92 in 10.0 mi WSW 9.2 mph - N/A   Clear
9:35 AM 80.6 °F 83.2 °F 68.0 °F 65% 29.92 in 10.0 mi West 8.1 mph - N/A   Clear
9:55 AM 80.6 °F 83.2 °F 68.0 °F 65% 29.92 in - West 9.2 mph - N/A   Clear
10:15 AM 82.4 °F 85.4 °F 68.0 °F 62% 29.92 in 10.0 mi West 8.1 mph - N/A   Clear
10:35 AM 84.2 °F 87.3 °F 68.0 °F 58% 29.92 in 10.0 mi Variable 6.9 mph - N/A   Clear
10:55 AM 84.2 °F 86.6 °F 66.2 °F 55% 29.92 in 10.0 mi West 4.6 mph - N/A   Clear
11:15 AM 86.0 °F 89.4 °F 68.0 °F 55% 29.92 in 10.0 mi Variable 6.9 mph - N/A   Clear
11:35 AM 86.0 °F 88.2 °F 66.2 °F 51% 29.92 in 10.0 mi WNW 6.9 mph - N/A   Clear
11:55 AM 86.0 °F 89.4 °F 68.0 °F 55% 29.92 in 10.0 mi West 9.2 mph - N/A   Clear
12:15 PM 87.8 °F 90.4 °F 66.2 °F 49% 29.91 in 10.0 mi NW 9.2 mph - N/A   Clear
12:35 PM 87.8 °F 88.5 °F 62.6 °F 43% 29.92 in 10.0 mi NW 9.2 mph 15.0 mph N/A   Clear
12:55 PM 89.6 °F 89.5 °F 60.8 °F 38% 29.92 in 10.0 mi NNW 13.8 mph - N/A   Clear
1:15 PM 87.8 °F 87.6 °F 60.8 °F 40% 29.92 in 10.0 mi NW 10.4 mph 17.3 mph N/A   Clear
1:35 PM 87.8 °F 87.6 °F 60.8 °F 40% 29.92 in 10.0 mi NW 11.5 mph 18.4 mph N/A   Clear
1:55 PM 87.8 °F 86.1 °F 55.4 °F 33% 29.92 in 10.0 mi NW 15.0 mph 20.7 mph N/A   Clear
2:15 PM 87.8 °F 86.5 °F 57.2 °F 35% 29.92 in 10.0 mi NNW 10.4 mph 20.7 mph N/A   Clear
2:35 PM 87.8 °F 87.1 °F 59.0 °F 38% 29.92 in 10.0 mi NNW 15.0 mph 20.7 mph N/A   Clear
2:55 PM 87.8 °F 85.7 °F 53.6 °F 31% 29.93 in 10.0 mi WNW 11.5 mph 17.3 mph N/A   Clear
3:15 PM 87.8 °F 87.1 °F 59.0 °F 38% 29.93 in 10.0 mi NW 15.0 mph 20.7 mph N/A   Clear
3:35 PM 87.8 °F 86.1 °F 55.4 °F 33% 29.93 in 10.0 mi NNW 11.5 mph - N/A   Clear
3:55 PM 86.0 °F 84.9 °F 57.2 °F 37% 29.93 in 10.0 mi NNW 10.4 mph 17.3 mph N/A   Clear
4:15 PM 86.0 °F 85.4 °F 59.0 °F 40% 29.92 in 10.0 mi North 9.2 mph 15.0 mph N/A   Clear
4:35 PM 86.0 °F 85.4 °F 59.0 °F 40% 29.92 in 10.0 mi North 10.4 mph 17.3 mph N/A   Clear
4:55 PM 86.0 °F 85.4 °F 59.0 °F 40% 29.92 in 10.0 mi North 10.4 mph - N/A   Clear
5:15 PM 84.2 °F 83.8 °F 59.0 °F 42% 29.92 in 10.0 mi WNW 6.9 mph - N/A   Clear
5:35 PM 84.2 °F 84.4 °F 60.8 °F 45% 29.91 in 10.0 mi NNW 12.7 mph - N/A   Clear
5:55 PM 84.2 °F 84.4 °F 60.8 °F 45% 29.91 in 10.0 mi North 9.2 mph 16.1 mph N/A   Clear
6:15 PM 84.2 °F 84.4 °F 60.8 °F 45% 29.91 in 10.0 mi NNW 10.4 mph - N/A   Clear
6:35 PM 84.2 °F 84.4 °F 60.8 °F 45% 29.91 in 10.0 mi North 12.7 mph - N/A   Clear
6:55 PM 82.4 °F 82.5 °F 59.0 °F 45% 29.91 in 10.0 mi North 9.2 mph - N/A   Clear
7:15 PM 82.4 °F 82.0 °F 57.2 °F 42% 29.91 in 10.0 mi North 10.4 mph - N/A   Clear
7:35 PM 80.6 °F 81.5 °F 60.8 °F 51% 29.91 in 10.0 mi North 6.9 mph - N/A   Clear
7:55 PM 80.6 °F 81.1 °F 59.0 °F 48% 29.91 in 10.0 mi North 6.9 mph - N/A   Clear
8:15 PM 77.0 °F - 60.8 °F 57% 29.91 in 10.0 mi North 6.9 mph - N/A   Clear
8:35 PM 75.2 °F - 60.8 °F 61% 29.92 in 10.0 mi North 4.6 mph - N/A   Clear
8:55 PM 73.4 °F - 59.0 °F 61% 29.92 in 10.0 mi North 6.9 mph - N/A   Clear
9:15 PM 73.4 °F - 59.0 °F 61% 29.93 in 10.0 mi NNW 4.6 mph - N/A   Clear
9:35 PM 71.6 °F - 59.0 °F 64% 29.93 in 10.0 mi North 5.8 mph - N/A   Clear
9:55 PM 71.6 °F - 59.0 °F 64% 29.94 in 10.0 mi North 5.8 mph - N/A   Clear
10:15 PM 71.6 °F - 59.0 °F 64% 29.94 in 10.0 mi North 6.9 mph - N/A   Clear
10:35 PM 69.8 °F - 59.0 °F 68% 29.94 in 10.0 mi North 6.9 mph - N/A   Clear
10:55 PM 69.8 °F - 59.0 °F 68% 29.95 in 10.0 mi North 4.6 mph - N/A   Clear
11:15 PM 69.8 °F - 59.0 °F 68% 29.95 in 10.0 mi North 5.8 mph - N/A   Clear
11:35 PM 69.8 °F - 57.2 °F 64% 29.95 in 10.0 mi North 5.8 mph - N/A   Clear
11:55 PM 69.8 °F - 57.2 °F 64% 29.96 in 10.0 mi NNE 4.6 mph - N/A   Clear